Location: Kerb�bon
(47.7970°N, 3.3487°W)
Time: 12:56:55
(UTC+00:00)

Cosmos 1048 Rocket - Pass Details

Date: 12 May 2021
Orbit: 743 x 791 km, 74.0° (Epoch: 18 June)

Event Time Altitude Azimuth Distance (km) Brightness Sun altitude
Rises 23:20:10 0° 339° (NNW) 3,284 8.7 -22.9°
Reaches altitude 10° 23:22:37 10° 342° (NNW) 2,346 7.6 -23.0°
Maximum altitude 23:27:55 64° 65° (ENE) 856 4.2 -23.2°
Enters shadow 23:29:10 49° 121° (ESE) 998 4.3 -23.2°
